Hourly Data Report for June 11, 2004

TORONTO CITY
ONTARIO

43°40'00.000" N
79°24'00.000" W
112.50 m
6158355
71508
XTO

Download Data

Hourly Data (June 2004)
Hourly Data Report for June 11, 2004
TIME
LST
Temp Definition
°C
Dew Point Definition
°C
Rel Hum Definition
%
Precip. Amount Definition
mm

Wind Dir Definition
10's deg

Wind Spd Definition
km/h
Visibility Definition
km
Stn Press Definition
kPa
Hmdx Definition


Wind Chill Definition


Weather Definition


00:00 14.2 8.3 68   LegendMM LegendMM LegendMM 100.34     LegendNANA
01:00 14.5 8.2 66   LegendMM LegendMM LegendMM 100.31     LegendNANA
02:00 13.4 8.8 74   LegendMM LegendMM LegendMM 100.30     LegendNANA
03:00 13.4 7.2 66   LegendMM LegendMM LegendMM 100.33     LegendNANA
04:00 13.1 8.2 72   LegendMM LegendMM LegendMM 100.35     LegendNANA
05:00 13.6 4.9 56   LegendMM LegendMM LegendMM 100.38     LegendNANA
06:00 14.1 3.4 48   LegendMM LegendMM LegendMM 100.40     LegendNANA
07:00 15.1 3.3 45   LegendMM LegendMM LegendMM 100.45     LegendNANA
08:00 15.9 3.8 44   LegendMM LegendMM LegendMM 100.48     LegendNANA
09:00 16.6 2.3 38   LegendMM LegendMM LegendMM 100.48     LegendNANA
10:00 16.6 4.2 44   LegendMM LegendMM LegendMM 100.47     LegendNANA
11:00 16.6 3.5 42   LegendMM LegendMM LegendMM 100.46     LegendNANA
12:00 16.5 4.3 44   LegendMM LegendMM LegendMM 100.46     LegendNANA
13:00 16.5 4.2 44   LegendMM LegendMM LegendMM 100.43     LegendNANA
14:00 17.6 3.8 40   LegendMM LegendMM LegendMM 100.39     LegendNANA
15:00 17.7 4.2 41   LegendMM LegendMM LegendMM 100.35     LegendNANA
16:00 17.7 2.9 37   LegendMM LegendMM LegendMM 100.31     LegendNANA
17:00 17.2 2.4 37   LegendMM LegendMM LegendMM 100.32     LegendNANA
18:00 16.4 2.3 39   LegendMM LegendMM LegendMM 100.32     LegendNANA
19:00 16.5 2.8 40   LegendMM LegendMM LegendMM 100.37     LegendNANA
20:00 15.6 2.1 40   LegendMM LegendMM LegendMM 100.41     LegendNANA
21:00 15.4 1.9 40   LegendMM LegendMM LegendMM 100.45     LegendNANA
22:00 14.4 3.3 47   LegendMM LegendMM LegendMM 100.51     LegendNANA
23:00 14.0 3.6 49   LegendMM LegendMM LegendMM 100.56     LegendNANA

Notes on Data Quality.

Legend

  • E = Estimated
  • M = Missing
  • NA = Not Available*
  • [empty] = Indicates an unobserved value
Date modified: